Torna al catalogo

CZ-6A DEB

AttivoPO
NORAD 60881·DEBRIS·🇨🇳 China

Lanciato Aug 6, 2024 da Taiyuan Satellite Launch Center

Loading…

Prossimi Passaggi (prossime 24 ore)

TLE

AggiornatoSource: Space-Track

Epoca: Sep 14, 2026, 07:51 UTC

1 60881U 24140KL  26257.32772381  .00000995  00000-0  41774-3 0  9998
2 60881  88.9960 264.1130 0030883 240.1248 119.6875 14.24929406105896

Traccia CZ-6A DEB in tempo reale con AllMySat

Download on the App Store